STARLINK-32825, 62825

Orbit data source: Space-Track

STARLINK-32825, 62825 is a payload satellite owned by SpaceX/Seattle (US) in LEO that was launched on Fri, 24 Jan 2025 UTC via an FALCON 9 launch vehicle from the Air Force Western Test Range (AFWTR). Payload-class satellites include a variety of spacecraft equipped with specific instruments for various scientific and technological missions. These include communications satellites like Starlink; space stations such as the ISS; scientific satellites like the Hubble; Earth observation satellites from companies like Planet Labs, Umbra, and HawkEye 360; GPS; miniature CubeSats for education and research; and military/defense satellites.

Loading next visibility...
Identifier
62825, 2025-018V
Orbit
LEO
Last TLE update
7 hours ago
Origin
Manufacturer
SpaceX/Seattle
Mission
Operational Commercial Communications
Bus & Motor
STARLINK V2M, Unknown motor
Mass
730 kg wet, ~700 kg dry
Launch date (UTC)
2025-01-24 (5 months ago)
Launch vehicle
FALCON 9
Launch site
Air Force Western Test Range (AFWTR)
Object type
Payload
Rocket body
Debris
Shape & HBR
Box + 2 Pan, 29 m
Radar Cross Section
33.884 m², Large (>1 m²)

Expand to show TLE details & history

TLE from 7 hours ago
0 STARLINK-32825
1 62825U 25018V   25182.89848936  .00023247  00000-0  58923-3 0  9990
2 62825  53.1594  32.1865 0001054  82.8787 277.2337 15.39627988 24800
Epoch: 2025-07-01T21:33Z
TLE epoch observation values (Epoch: 2025-07-01T21:33:49.48Z)
Latitude
-0.00009°
Longitude
148.54293°
Altitude
448.021 km
Speed
7.645 km/s
True Right ascension
02h 08m 44s
True Declination
0° 00' 00"
Sunlit
Object was in daylight at epoch
Visualization orbit readout
Latitude
-1.25791°
Longitude
-31.89761°
Altitude
448.339 km
Speed
7.644 km/s
Apparent Right ascension
11h 09m 50s
Apparent Declination
-48° 22' 11"
Sunlit
Object is in daylight
Visualization observer readout
Local Sidereal Time
16:16:14
Azimuth
223.877° SW
Elevation
-21.194°
Doppler factor
1
Orbital elements
Apogee altitude
448.186 km
Perigee altitude
446.747 km
Semi-major axis
6,825.603 km
Eccentricity
0.00011
Inclination
53.1594°
RAAN
32.1865°
Arg. of periapsis
82.8787°
True anomaly
Unknown
Mean anomaly
277.2337°
Eccentric anomaly
Unknown
Mean motion
3.84886 °/min
Orbital period
93.53 mins
BSTAR
0.00058923
Loading maneuver chart data...
Loading SW <> Apogee altitude chart data...
Loading historical data...
Loading historical data...
Loading historical data...
Loading historical data...
Loading historical data...
Loading historical data...
Loading historical data...

STARLINK-32825 Visibility forecast

Observer location: undefined°, undefined°

Span
Click to sort rows by Start time (UTC) header in descending order
Start Az.
Max El. time (UTC)
Max El. Az.
Max El.
End time (UTC)
End Az.
6 mins2025-07-02 16:25:48.820Z215.656° SW2025-07-02 16:28:48.820Z125.828° SE41.072°2025-07-02 16:31:48.820Z57.212° ENE
4 mins2025-07-02 18:04:48.820Z301.493° NW2025-07-02 18:05:48.820Z323.366° NNW19.189°2025-07-02 18:08:48.820Z23.914° NE
5 mins2025-07-02 22:58:48.820Z325.166° NNW2025-07-02 23:00:48.820Z11.874° NNE35.73°2025-07-02 23:03:48.820Z107.89° ESE
|